UAE221A OMDB-KDFW

Flight info

Callsign UAE221A
Flight time N/A
Altitude 30000
Route RIDAP M557 TUMAK DCT TASMI DCT ODALI UL852 RUXEV/N0489F320 UL852 NEGEM T746 ARGES DCT ABETI DCT SNU DCT RENKA DCT BATTY DCT SASKI/N0481F340 DCT WELIN T420 TNT UL28 RODOL UM65 TENSO DCT REMSI DCT GINGA DCT GOMUP/M084F350 DCT 5830N02000W 59N030W 5830N04000W 5730N05000W DCT ENNSO/N0476F360 N776B MT DCT TVC DCT BAE DCT WELTS DCT SGF DCT RZC DCT FSM DCT RRNET SEEVR4
Aircraft B77W/H-SDE1E2E3FGHIJ2J3J4J5M1RWXY/LB1D1

Departure

Time 2026-04-25 16:34
Airport Dubai International Airport (OMDB)

Arrival

Time N/A
Airport Dallas Fort Worth International Airport (KDFW)
Time Latitude Longitude Altitude Speed Heading
2026-04-25 16:01 25.24627 55.36369 26 ft 0 kts 31°
2026-04-25 16:15 25.24614 55.36360 29 ft 3 kts 31°
2026-04-25 16:16 25.24596 55.36348 31 ft 3 kts 31°
2026-04-25 16:16 25.24580 55.36337 30 ft 3 kts 30°
2026-04-25 16:16 25.24563 55.36329 31 ft 3 kts 354°
2026-04-25 16:16 25.24546 55.36336 31 ft 3 kts 314°
2026-04-25 16:17 25.24537 55.36348 31 ft 1 kts 301°
2026-04-25 16:17 25.24529 55.36363 31 ft 3 kts 301°
2026-04-25 16:17 25.24518 55.36382 31 ft 2 kts 301°
2026-04-25 16:17 25.24514 55.36389 31 ft 0 kts 301°
2026-04-25 16:22 25.24515 55.36387 31 ft 1 kts 301°
2026-04-25 16:22 25.24530 55.36360 31 ft 8 kts 302°
2026-04-25 16:22 25.24580 55.36271 30 ft 18 kts 302°
2026-04-25 16:22 25.24649 55.36149 31 ft 19 kts 302°
2026-04-25 16:23 25.24719 55.36025 30 ft 19 kts 302°
2026-04-25 16:23 25.24788 55.35902 30 ft 19 kts 302°
2026-04-25 16:23 25.24858 55.35779 28 ft 19 kts 302°
2026-04-25 16:23 25.24934 55.35661 29 ft 19 kts 306°
2026-04-25 16:24 25.25006 55.35540 30 ft 19 kts 302°
2026-04-25 16:24 25.25074 55.35418 30 ft 19 kts 302°
2026-04-25 16:24 25.25144 55.35295 29 ft 19 kts 303°
2026-04-25 16:24 25.25223 55.35180 30 ft 19 kts 304°
2026-04-25 16:25 25.25292 55.35057 30 ft 19 kts 302°
2026-04-25 16:25 25.25316 55.35016 27 ft 18 kts 302°
2026-04-25 16:25 25.25424 55.34897 29 ft 14 kts 351°
2026-04-25 16:25 25.25511 55.34928 29 ft 14 kts 31°
2026-04-25 16:26 25.25592 55.34982 30 ft 14 kts 31°
2026-04-25 16:26 25.25661 55.35029 29 ft 10 kts 31°
2026-04-25 16:26 25.25670 55.35096 30 ft 10 kts 114°
2026-04-25 16:26 25.25693 55.35162 29 ft 10 kts 38°
2026-04-25 16:27 25.25754 55.35203 29 ft 10 kts 32°
2026-04-25 16:27 25.25819 55.35247 28 ft 12 kts 31°
2026-04-25 16:27 25.25901 55.35302 29 ft 15 kts 31°
2026-04-25 16:27 25.25983 55.35374 29 ft 15 kts 53°
2026-04-25 16:28 25.26010 55.35485 29 ft 15 kts 97°
2026-04-25 16:28 25.25968 55.35592 26 ft 15 kts 121°
2026-04-25 16:28 25.25907 55.35702 29 ft 19 kts 121°
2026-04-25 16:28 25.25825 55.35847 27 ft 25 kts 122°
2026-04-25 16:29 25.25730 55.36017 27 ft 26 kts 122°
2026-04-25 16:29 25.25634 55.36187 27 ft 26 kts 121°
2026-04-25 16:29 25.25538 55.36358 27 ft 26 kts 122°
2026-04-25 16:29 25.25442 55.36528 27 ft 26 kts 122°
2026-04-25 16:30 25.25378 55.36641 30 ft 26 kts 122°
2026-04-25 16:30 25.25250 55.36869 26 ft 26 kts 122°
2026-04-25 16:30 25.25155 55.37040 27 ft 26 kts 121°
2026-04-25 16:30 25.25059 55.37211 28 ft 26 kts 122°
2026-04-25 16:31 25.24964 55.37378 28 ft 26 kts 122°
2026-04-25 16:31 25.24868 55.37549 28 ft 26 kts 122°
2026-04-25 16:31 25.24773 55.37716 27 ft 21 kts 122°
2026-04-25 16:31 25.24718 55.37815 27 ft 13 kts 122°
2026-04-25 16:32 25.24680 55.37882 27 ft 10 kts 122°
2026-04-25 16:32 25.24671 55.37952 27 ft 10 kts 56°
2026-04-25 16:32 25.24728 55.37998 29 ft 10 kts 31°
2026-04-25 16:32 25.24790 55.38031 30 ft 10 kts
2026-04-25 16:33 25.24821 55.38002 30 ft 0 kts 301°
2026-04-25 16:33 25.24837 55.37974 30 ft 14 kts 301°
2026-04-25 16:33 25.25004 55.37670 30 ft 83 kts 302°
2026-04-25 16:33 25.25432 55.36898 29 ft 152 kts 301°
2026-04-25 16:34 25.26086 55.35735 41 ft 204 kts 302°
2026-04-25 16:34 25.26842 55.34408 645 ft 200 kts 301°
2026-04-25 16:34 25.27580 55.33073 1235 ft 204 kts 302°
2026-04-25 16:34 25.28308 55.31718 1716 ft 211 kts 302°
2026-04-25 16:35 25.29072 55.30322 2041 ft 218 kts 302°
2026-04-25 16:35 25.29906 55.28872 2274 ft 230 kts 305°
2026-04-25 16:35 25.30843 55.27381 2549 ft 242 kts 306°
2026-04-25 16:35 25.31837 55.25840 2860 ft 254 kts 307°
2026-04-25 16:36 25.32906 55.24197 3051 ft 269 kts 307°
2026-04-25 16:36 25.33275 55.23629 3242 ft 269 kts 307°
2026-04-25 16:36 25.35062 55.20858 4272 ft 269 kts 303°
2026-04-25 16:36 25.35808 55.18950 4591 ft 278 kts 278°
2026-04-25 16:37 25.35881 55.16795 4993 ft 283 kts 269°
2026-04-25 16:37 25.35799 55.14603 5567 ft 286 kts 268°
2026-04-25 16:37 25.35694 55.12407 6207 ft 286 kts 268°
2026-04-25 16:37 25.35596 55.10206 6768 ft 288 kts 268°
2026-04-25 16:38 25.35484 55.07989 7294 ft 290 kts 268°
2026-04-25 16:38 25.35376 55.05751 7848 ft 293 kts 268°
2026-04-25 16:38 25.35278 55.03525 8402 ft 294 kts 268°
2026-04-25 16:38 25.35188 55.01261 8982 ft 295 kts 268°
2026-04-25 16:39 25.35110 54.98985 9572 ft 297 kts 268°
2026-04-25 16:39 25.35037 54.96699 10087 ft 299 kts 268°
2026-04-25 16:39 25.34973 54.94368 10431 ft 309 kts 268°
2026-04-25 16:39 25.34896 54.91916 10524 ft 327 kts 268°
2026-04-25 16:40 25.34933 54.90231 10549 ft 336 kts 278°
2026-04-25 16:40 25.35579 54.87693 10692 ft 352 kts 289°
2026-04-25 16:40 25.36417 54.85072 10851 ft 368 kts 288°
2026-04-25 16:40 25.37242 54.82358 11243 ft 376 kts 287°
2026-04-25 16:41 25.38314 54.78693 11945 ft 381 kts 286°
2026-04-25 16:41 25.38588 54.77740 12117 ft 383 kts 286°
2026-04-25 16:41 25.40472 54.71143 13390 ft 391 kts 286°
2026-04-25 16:42 25.41304 54.68257 13893 ft 395 kts 286°
2026-04-25 16:42 25.42144 54.65355 14402 ft 398 kts 286°
2026-04-25 16:42 25.42989 54.62432 14954 ft 399 kts 286°
2026-04-25 16:42 25.43841 54.59500 15494 ft 401 kts 286°
2026-04-25 16:43 25.44704 54.56564 16016 ft 403 kts 286°
2026-04-25 16:43 25.45577 54.53603 16527 ft 405 kts 285°
2026-04-25 16:43 25.46455 54.50624 17037 ft 408 kts 285°
2026-04-25 16:43 25.47335 54.47630 17545 ft 410 kts 285°
2026-04-25 16:44 25.48220 54.44616 18075 ft 412 kts 285°
2026-04-25 16:44 25.49108 54.41587 18515 ft 415 kts 285°
2026-04-25 16:44 25.49997 54.38550 18996 ft 416 kts 285°
2026-04-25 16:44 25.50879 54.35537 19488 ft 416 kts 285°
2026-04-25 16:45 25.51772 54.32481 19978 ft 417 kts 285°
2026-04-25 16:45 25.52666 54.29418 20449 ft 419 kts 285°
2026-04-25 16:45 25.53564 54.26343 20907 ft 420 kts 285°
2026-04-25 16:45 25.54465 54.23256 21374 ft 421 kts 285°
2026-04-25 16:46 25.55376 54.20170 21840 ft 422 kts 285°
2026-04-25 16:46 25.56296 54.17068 22267 ft 424 kts 286°
2026-04-25 16:46 25.57216 54.13965 22706 ft 426 kts 286°
2026-04-25 16:46 25.57827 54.11898 22978 ft 427 kts 285°
2026-04-25 16:47 25.59066 54.07698 23527 ft 429 kts 285°
2026-04-25 16:47 25.59974 54.04586 23845 ft 431 kts 285°
2026-04-25 16:47 25.60881 54.01399 24168 ft 432 kts 285°
2026-04-25 16:47 25.61780 53.98218 24496 ft 434 kts 284°
2026-04-25 16:48 25.62682 53.95018 24828 ft 435 kts 284°
2026-04-25 16:48 25.63587 53.91811 25135 ft 437 kts 284°
2026-04-25 16:48 25.64499 53.88584 25425 ft 440 kts 284°
2026-04-25 16:48 25.65416 53.85339 25739 ft 441 kts 284°
2026-04-25 16:49 25.66335 53.82090 26069 ft 442 kts 284°
2026-04-25 16:49 25.67256 53.78833 26372 ft 444 kts 284°
2026-04-25 16:49 25.68181 53.75554 26670 ft 445 kts 284°
2026-04-25 16:49 25.69095 53.72312 26963 ft 447 kts 284°
2026-04-25 16:50 25.70022 53.69018 27266 ft 448 kts 284°
2026-04-25 16:50 25.70949 53.65718 27554 ft 449 kts 284°
2026-04-25 16:50 25.71881 53.62395 27826 ft 451 kts 283°
2026-04-25 16:50 25.72815 53.59064 28088 ft 453 kts 283°
2026-04-25 16:51 25.73752 53.55721 28337 ft 454 kts 283°
2026-04-25 16:51 25.74691 53.52366 28583 ft 456 kts 283°
2026-04-25 16:51 25.75632 53.49008 28840 ft 457 kts 283°
2026-04-25 16:51 25.76262 53.46774 28987 ft 458 kts 283°
2026-04-25 16:52 25.77543 53.42248 29300 ft 459 kts 283°
2026-04-25 16:52 25.78500 53.38862 29520 ft 461 kts 283°
2026-04-25 16:52 25.79460 53.35465 29799 ft 460 kts 283°
2026-04-25 16:52 25.80405 53.32111 29871 ft 463 kts 283°
2026-04-25 16:53 25.83435 53.21978 29912 ft 461 kts 290°
2026-04-25 16:54 25.86717 53.15814 29929 ft 467 kts 300°
2026-04-25 16:54 25.91010 53.10333 29937 ft 472 kts 308°
2026-04-25 16:55 25.95544 53.05037 29939 ft 473 kts 308°
2026-04-25 16:55 26.00068 52.99723 29937 ft 474 kts 307°
2026-04-25 16:56 26.04587 52.94360 29942 ft 476 kts 307°
2026-04-25 16:56 26.09080 52.89000 29947 ft 477 kts 307°
2026-04-25 16:57 26.13615 52.83579 29941 ft 479 kts 307°
2026-04-25 16:57 26.18156 52.78148 29942 ft 479 kts 307°
2026-04-25 16:58 26.22688 52.72721 29948 ft 478 kts 307°
2026-04-25 16:58 26.27217 52.67293 29954 ft 476 kts 307°
2026-04-25 16:59 26.31713 52.61899 29945 ft 474 kts 307°
2026-04-25 16:59 26.36189 52.56519 29943 ft 472 kts 307°
2026-04-25 17:00 26.40615 52.51194 29946 ft 471 kts 307°
2026-04-25 17:00 26.45065 52.45832 29964 ft 471 kts 307°
2026-04-25 17:01 26.49515 52.40461 29954 ft 472 kts 307°
2026-04-25 17:01 26.53974 52.35074 29952 ft 473 kts 307°
2026-04-25 17:02 26.58443 52.29670 29954 ft 474 kts 307°
2026-04-25 17:02 26.62922 52.24247 29964 ft 476 kts 307°
2026-04-25 17:03 26.67418 52.18797 29957 ft 477 kts 307°
2026-04-25 17:03 26.71929 52.13322 29951 ft 478 kts 307°
2026-04-25 17:04 26.76436 52.07845 29956 ft 478 kts 307°
2026-04-25 17:04 26.80918 52.02393 29966 ft 479 kts 307°
2026-04-25 17:05 26.85425 51.96901 29958 ft 478 kts 307°
2026-04-25 17:05 26.92177 51.88663 29961 ft 478 kts 307°
2026-04-25 17:06 26.96672 51.83170 29971 ft 478 kts 307°
2026-04-25 17:06 27.01161 51.77675 29958 ft 478 kts 307°
2026-04-25 17:07 27.05661 51.72161 29962 ft 479 kts 307°
2026-04-25 17:07 27.10161 51.66640 29962 ft 480 kts 307°
2026-04-25 17:08 27.14640 51.61137 29970 ft 481 kts 307°
2026-04-25 17:08 27.19163 51.55573 29976 ft 482 kts 306°
2026-04-25 17:09 27.23682 51.50008 29963 ft 482 kts 306°
2026-04-25 17:09 27.28200 51.44436 29966 ft 482 kts 306°
2026-04-25 17:10 27.32710 51.38869 29975 ft 481 kts 306°
2026-04-25 17:10 27.37181 51.33341 29982 ft 480 kts 306°
2026-04-25 17:11 27.41680 51.27769 29983 ft 481 kts 306°
2026-04-25 17:11 27.46182 51.22188 29979 ft 482 kts 306°
2026-04-25 17:12 27.50695 51.16584 29970 ft 483 kts 306°
2026-04-25 17:12 27.55222 51.10957 29976 ft 483 kts 306°
2026-04-25 17:13 27.58215 51.07234 29975 ft 484 kts 306°
2026-04-25 17:13 27.64230 50.99741 29976 ft 484 kts 306°
2026-04-25 17:14 27.68746 50.94106 29981 ft 484 kts 306°
2026-04-25 17:14 27.73261 50.88464 29974 ft 483 kts 306°
2026-04-25 17:15 27.77761 50.82834 29974 ft 483 kts 306°
2026-04-25 17:15 27.82255 50.77204 29985 ft 481 kts 306°
2026-04-25 17:16 27.86735 50.71584 29979 ft 480 kts 306°
2026-04-25 17:16 27.91162 50.66022 29980 ft 478 kts 306°
2026-04-25 17:17 27.95601 50.60439 30004 ft 477 kts 306°
2026-04-25 17:17 28.00029 50.54861 29986 ft 475 kts 306°
2026-04-25 17:18 28.04441 50.49296 29982 ft 474 kts 306°
2026-04-25 17:18 28.08844 50.43736 29983 ft 473 kts 306°
2026-04-25 17:19 28.13200 50.38225 29998 ft 472 kts 306°
2026-04-25 17:19 28.17578 50.32683 29986 ft 471 kts 306°
2026-04-25 17:20 28.21937 50.27156 29988 ft 470 kts 306°
2026-04-25 17:20 28.26299 50.21617 29989 ft 469 kts 306°
2026-04-25 17:21 28.30641 50.16097 30001 ft 468 kts 306°
2026-04-25 17:21 28.34946 50.10617 29991 ft 466 kts 306°
2026-04-25 17:22 28.37833 50.06938 29989 ft 466 kts 306°
2026-04-25 17:22 28.43561 49.99628 30002 ft 464 kts 305°
2026-04-25 17:23 28.47855 49.94139 29987 ft 464 kts 305°
2026-04-25 17:23 28.52137 49.88658 29992 ft 464 kts 305°
2026-04-25 17:24 28.56421 49.83168 30007 ft 464 kts 305°
2026-04-25 17:24 28.60702 49.77675 30005 ft 464 kts 305°
2026-04-25 17:25 28.64951 49.72215 29999 ft 463 kts 306°
2026-04-25 17:25 28.69215 49.66731 29997 ft 462 kts 305°
2026-04-25 17:26 28.73480 49.61237 29992 ft 462 kts 305°
2026-04-25 17:26 28.77726 49.55758 30002 ft 461 kts 305°
2026-04-25 17:27 28.81981 49.50261 30002 ft 461 kts 305°
2026-04-25 17:27 28.84791 49.46627 29991 ft 461 kts 305°
2026-04-25 17:28 28.90429 49.39326 30007 ft 460 kts 305°
2026-04-25 17:28 28.94661 49.33837 29999 ft 461 kts 305°
2026-04-25 17:29 28.98206 49.29233 30004 ft 460 kts 306°
2026-04-25 17:29 29.02438 49.23731 29999 ft 461 kts 306°
2026-04-25 17:30 29.06646 49.18253 30004 ft 462 kts 305°
2026-04-25 17:30 29.10888 49.12721 30003 ft 464 kts 305°
2026-04-25 17:31 29.15148 49.07159 30009 ft 465 kts 306°
2026-04-25 17:31 29.19421 49.01573 30001 ft 467 kts 306°
2026-04-25 17:32 29.23709 48.95961 29998 ft 468 kts 306°
2026-04-25 17:32 29.27988 48.90352 29991 ft 468 kts 306°
2026-04-25 17:33 29.32266 48.84738 29991 ft 468 kts 306°
2026-04-25 17:33 29.36511 48.79159 29993 ft 468 kts 305°
2026-04-25 17:34 29.40796 48.73516 29989 ft 468 kts 305°
2026-04-25 17:34 29.45075 48.67876 29990 ft 469 kts 305°
2026-04-25 17:35 29.49360 48.62219 30013 ft 469 kts 305°
2026-04-25 17:35 29.53643 48.56558 29986 ft 469 kts 305°
2026-04-25 17:36 29.57918 48.50901 29981 ft 468 kts 305°
2026-04-25 17:36 29.62183 48.45248 29982 ft 467 kts 305°
2026-04-25 17:37 29.66435 48.39602 29984 ft 467 kts 305°
2026-04-25 17:37 29.70681 48.33958 29983 ft 466 kts 304°
2026-04-25 17:38 29.74203 48.29270 29982 ft 465 kts 304°
2026-04-25 17:38 29.79118 48.22718 29995 ft 464 kts 304°
2026-04-25 17:39 29.83344 48.17075 29984 ft 465 kts 304°
2026-04-25 17:39 29.87565 48.11432 29984 ft 465 kts 304°
2026-04-25 17:40 29.91797 48.05765 30001 ft 466 kts 304°
2026-04-25 17:40 29.96032 48.00087 29967 ft 467 kts 303°
2026-04-25 17:41 30.00292 47.94400 29977 ft 471 kts 306°
2026-04-25 17:41 30.05161 47.89287 29979 ft 483 kts 316°
2026-04-25 17:42 30.10702 47.84812 29978 ft 487 kts 317°
2026-04-25 17:42 30.16280 47.80348 29981 ft 487 kts 317°
2026-04-25 17:43 30.21836 47.75860 29977 ft 487 kts 317°
2026-04-25 17:43 30.27375 47.71355 29953 ft 485 kts 317°
2026-04-25 17:44 30.32844 47.66892 29957 ft 483 kts 317°
2026-04-25 17:44 30.38326 47.62413 29982 ft 482 kts 316°
2026-04-25 17:45 30.42914 47.58658 29954 ft 481 kts 316°
2026-04-25 17:45 30.49268 47.53454 29968 ft 481 kts 316°
2026-04-25 17:46 30.54741 47.48964 29980 ft 482 kts 317°
2026-04-25 17:46 30.60218 47.44463 29968 ft 483 kts 317°
2026-04-25 17:47 30.65705 47.39949 29963 ft 484 kts 316°
2026-04-25 17:47 30.71174 47.35445 29953 ft 485 kts 316°
2026-04-25 17:48 30.79434 47.28628 29960 ft 486 kts 316°
2026-04-25 17:49 30.84949 47.24069 29968 ft 486 kts 316°
2026-04-25 17:49 30.90460 47.19508 29956 ft 486 kts 316°
2026-04-25 17:50 30.95983 47.14930 29941 ft 486 kts 316°
2026-04-25 17:50 31.01447 47.10394 29974 ft 485 kts 316°
2026-04-25 17:51 31.06944 47.05823 29956 ft 485 kts 316°
2026-04-25 17:51 31.12426 47.01258 29952 ft 484 kts 316°
2026-04-25 17:52 31.17898 46.96695 29940 ft 483 kts 316°
2026-04-25 17:52 31.23362 46.92133 29950 ft 482 kts 316°
2026-04-25 17:53 31.28816 46.87571 29954 ft 481 kts 316°
2026-04-25 17:53 31.34263 46.83008 29975 ft 481 kts 316°
2026-04-25 17:54 31.39705 46.78442 29952 ft 481 kts 316°
2026-04-25 17:54 31.45118 46.73896 29960 ft 481 kts 316°
2026-04-25 17:55 31.50564 46.69314 29965 ft 482 kts 316°
2026-04-25 17:55 31.56027 46.64711 29961 ft 483 kts 316°
2026-04-25 17:56 31.61497 46.60096 29992 ft 484 kts 316°
2026-04-25 17:56 31.66926 46.55510 29959 ft 483 kts 316°
2026-04-25 17:57 31.72380 46.50896 29973 ft 483 kts 316°
2026-04-25 17:57 31.77835 46.46274 29982 ft 482 kts 317°
2026-04-25 17:58 31.83268 46.41664 29978 ft 480 kts 317°
2026-04-25 17:58 31.88685 46.37061 29975 ft 479 kts 317°
2026-04-25 17:59 31.94074 46.32473 29981 ft 477 kts 318°
2026-04-25 17:59 31.99443 46.27896 29983 ft 476 kts 318°
2026-04-25 18:00 32.04759 46.23358 29995 ft 474 kts 319°
2026-04-25 18:00 32.10107 46.18785 29984 ft 474 kts 319°
2026-04-25 18:01 32.15435 46.14222 29978 ft 473 kts 319°
2026-04-25 18:01 32.20767 46.09650 29983 ft 473 kts 319°
2026-04-25 18:02 32.26094 46.05075 29984 ft 474 kts 319°
2026-04-25 18:02 32.31392 46.00519 29987 ft 474 kts 319°
2026-04-25 18:03 32.36728 45.95923 30006 ft 475 kts 320°
2026-04-25 18:03 32.42070 45.91315 30008 ft 475 kts 320°
2026-04-25 18:04 32.47402 45.86709 30020 ft 474 kts 320°
2026-04-25 18:04 32.52754 45.82076 30029 ft 477 kts 320°
2026-04-25 18:05 32.58136 45.77413 30034 ft 480 kts 320°
2026-04-25 18:05 32.63546 45.72718 30044 ft 485 kts 321°
2026-04-25 18:06 32.69010 45.67966 30061 ft 494 kts 321°
2026-04-25 18:06 32.74571 45.63127 30056 ft 495 kts 321°
2026-04-25 18:07 32.80134 45.58279 30044 ft 495 kts 320°
2026-04-25 18:07 32.85694 45.53423 30044 ft 496 kts 319°
2026-04-25 18:08 32.91254 45.48561 30060 ft 496 kts 319°
2026-04-25 18:08 32.96791 45.43711 30041 ft 495 kts 319°
2026-04-25 18:09 33.02337 45.38845 30046 ft 495 kts 319°
2026-04-25 18:09 33.07879 45.33973 30035 ft 495 kts 319°
2026-04-25 18:10 33.13434 45.29083 30036 ft 496 kts 319°
2026-04-25 18:10 33.18988 45.24187 30057 ft 493 kts 319°
2026-04-25 18:11 33.24420 45.19394 30035 ft 486 kts 319°
2026-04-25 18:11 33.29899 45.14542 30044 ft 495 kts 319°
2026-04-25 18:12 33.35427 45.09644 30026 ft 490 kts 319°
2026-04-25 18:12 33.40872 45.04818 30013 ft 484 kts 319°
2026-04-25 18:13 33.46272 45.00020 30023 ft 483 kts 319°
2026-04-25 18:13 33.51681 44.95198 30027 ft 491 kts 319°
2026-04-25 18:14 33.59943 44.87826 30002 ft 493 kts 319°
2026-04-25 18:14 33.65455 44.82903 29991 ft 493 kts 319°
2026-04-25 18:15 33.70949 44.77986 29990 ft 492 kts 319°
2026-04-25 18:15 33.76402 44.73096 29986 ft 491 kts 319°
2026-04-25 18:16 33.81874 44.68181 29983 ft 491 kts 319°
2026-04-25 18:17 33.90074 44.60800 29991 ft 490 kts 319°
2026-04-25 18:17 33.95548 44.55863 29986 ft 490 kts 319°
2026-04-25 18:18 34.00975 44.50961 29983 ft 490 kts 319°
2026-04-25 18:18 34.06432 44.46022 29988 ft 490 kts 319°
2026-04-25 18:19 34.11874 44.41091 29998 ft 489 kts 319°
2026-04-25 18:19 34.17304 44.36163 29979 ft 487 kts 319°
2026-04-25 18:20 34.22713 44.31244 29974 ft 486 kts 319°
2026-04-25 18:20 34.27191 44.27166 29977 ft 485 kts 319°
2026-04-25 18:21 34.32587 44.22244 29990 ft 485 kts 319°
2026-04-25 18:21 34.38852 44.16518 29981 ft 486 kts 319°
2026-04-25 18:22 34.43383 44.12371 29980 ft 487 kts 319°
2026-04-25 18:22 34.48766 44.07437 29975 ft 488 kts 319°
2026-04-25 18:23 34.54188 44.02458 29979 ft 489 kts 318°
2026-04-25 18:23 34.59621 43.97461 29970 ft 490 kts 318°
2026-04-25 18:24 34.65053 43.92458 29974 ft 490 kts 318°
2026-04-25 18:24 34.70487 43.87443 29978 ft 490 kts 318°
2026-04-25 18:25 34.75873 43.82466 29983 ft 489 kts 318°
2026-04-25 18:25 34.81282 43.77458 29967 ft 488 kts 318°
2026-04-25 18:26 34.86683 43.72449 29968 ft 488 kts 318°
2026-04-25 18:26 34.92083 43.67432 29986 ft 488 kts 318°
2026-04-25 18:27 34.97479 43.62410 29982 ft 488 kts 318°
2026-04-25 18:27 35.02887 43.57368 29977 ft 489 kts 318°
2026-04-25 18:28 35.08249 43.52361 29969 ft 489 kts 318°
2026-04-25 18:28 35.13648 43.47311 29971 ft 488 kts 318°
2026-04-25 18:29 35.21742 43.39724 29978 ft 489 kts 318°
2026-04-25 18:30 35.32529 43.29582 29986 ft 488 kts 318°
2026-04-25 18:30 35.37915 43.24504 29977 ft 489 kts 318°
2026-04-25 18:31 35.43319 43.19401 29981 ft 490 kts 318°
2026-04-25 18:31 35.48692 43.14318 29979 ft 491 kts 318°
2026-04-25 18:32 35.54102 43.09192 29980 ft 491 kts 318°
2026-04-25 18:32 35.59514 43.04055 29985 ft 492 kts 318°
2026-04-25 18:33 35.64932 42.98903 29995 ft 492 kts 318°
2026-04-25 18:33 35.70350 42.93743 29985 ft 492 kts 318°
2026-04-25 18:34 35.75723 42.88615 29990 ft 491 kts 318°
2026-04-25 18:34 35.81116 42.83460 29993 ft 491 kts 318°
2026-04-25 18:35 35.86509 42.78295 29996 ft 490 kts 318°
2026-04-25 18:35 35.91892 42.73131 29994 ft 490 kts 318°
2026-04-25 18:36 35.97275 42.67958 30004 ft 490 kts 318°
2026-04-25 18:36 36.02645 42.62788 29997 ft 489 kts 318°
2026-04-25 18:37 36.08015 42.57609 29999 ft 489 kts 318°
2026-04-25 18:37 36.13348 42.52456 30005 ft 489 kts 318°
2026-04-25 18:38 36.18718 42.47258 30004 ft 490 kts 318°
2026-04-25 18:38 36.24084 42.42055 30008 ft 490 kts 318°
2026-04-25 18:39 36.29457 42.36836 30005 ft 491 kts 317°
2026-04-25 18:39 36.34839 42.31598 30015 ft 491 kts 317°
2026-04-25 18:40 36.40190 42.26381 30011 ft 492 kts 317°
2026-04-25 18:40 36.45543 42.21154 30011 ft 492 kts 317°
2026-04-25 18:41 36.50926 42.15888 30014 ft 493 kts 317°
2026-04-25 18:41 36.56312 42.10608 30011 ft 492 kts 317°
2026-04-25 18:42 36.60781 42.06221 30014 ft 492 kts 317°
2026-04-25 18:42 36.67051 42.00054 30022 ft 491 kts 317°
2026-04-25 18:43 36.72411 41.94771 30015 ft 491 kts 317°
2026-04-25 18:43 36.77769 41.89480 30011 ft 491 kts 317°
2026-04-25 18:44 36.83089 41.84218 30008 ft 491 kts 317°
2026-04-25 18:44 36.88438 41.78916 30017 ft 491 kts 317°
2026-04-25 18:45 36.93791 41.73602 30016 ft 491 kts 316°
2026-04-25 18:45 36.99145 41.68277 30018 ft 491 kts 316°
2026-04-25 18:46 37.04486 41.62954 30016 ft 491 kts 316°
2026-04-25 18:46 37.09827 41.57623 30028 ft 490 kts 316°
2026-04-25 18:47 37.15153 41.52295 30033 ft 490 kts 316°
2026-04-25 18:47 37.20441 41.46998 30050 ft 489 kts 316°
2026-04-25 18:48 37.25750 41.41668 30042 ft 488 kts 316°
2026-04-25 18:48 37.31052 41.36334 30039 ft 487 kts 316°
2026-04-25 18:49 37.36338 41.31008 30056 ft 486 kts 316°
2026-04-25 18:49 37.41610 41.25685 30052 ft 485 kts 316°
2026-04-25 18:50 37.46829 41.20407 30056 ft 484 kts 316°
2026-04-25 18:50 37.52085 41.15080 30053 ft 484 kts 316°
2026-04-25 18:51 37.56448 41.10652 30054 ft 485 kts 316°
2026-04-25 18:51 37.62588 41.04408 30050 ft 485 kts 316°
2026-04-25 18:52 37.67799 40.99098 30058 ft 485 kts 316°
2026-04-25 18:52 37.73048 40.93739 30054 ft 485 kts 316°
2026-04-25 18:53 37.78305 40.88362 30065 ft 486 kts 316°
2026-04-25 18:53 37.83535 40.83002 30053 ft 486 kts 316°
2026-04-25 18:54 37.91398 40.74927 30062 ft 484 kts 316°
2026-04-25 18:55 37.96622 40.69550 30057 ft 482 kts 316°
2026-04-25 18:55 38.01818 40.64190 30075 ft 481 kts 316°
2026-04-25 18:56 38.07002 40.58832 30065 ft 480 kts 316°
2026-04-25 18:56 38.12043 40.53287 30068 ft 475 kts 309°
2026-04-25 18:57 38.16284 40.46907 30073 ft 472 kts 305°
2026-04-25 18:57 38.20467 40.40454 30076 ft 473 kts 305°
2026-04-25 18:58 38.24657 40.34043 30079 ft 473 kts 305°
2026-04-25 18:58 38.30999 40.24375 30080 ft 474 kts 306°
2026-04-25 18:59 38.39442 40.11474 30101 ft 474 kts 306°
2026-04-25 19:00 38.45741 40.01809 30087 ft 474 kts 306°
2026-04-25 19:01 38.52052 39.92098 30084 ft 473 kts 306°
2026-04-25 19:01 38.56247 39.85627 30078 ft 473 kts 306°
2026-04-25 19:02 38.62530 39.75908 30082 ft 472 kts 306°
2026-04-25 19:03 38.67393 39.68366 30080 ft 472 kts 306°
2026-04-25 19:03 38.72957 39.59715 30083 ft 473 kts 305°
2026-04-25 19:04 38.79225 39.49941 30084 ft 474 kts 305°
2026-04-25 19:05 38.87575 39.36876 30076 ft 473 kts 305°
2026-04-25 19:06 38.91739 39.30340 30074 ft 472 kts 305°
2026-04-25 19:06 38.97959 39.20551 30073 ft 471 kts 305°
2026-04-25 19:07 39.04158 39.10765 30084 ft 472 kts 305°
2026-04-25 19:08 39.10381 39.00913 30092 ft 473 kts 305°
2026-04-25 19:09 39.17306 38.89910 30098 ft 475 kts 305°
2026-04-25 19:10 39.24916 38.77778 30103 ft 475 kts 304°
2026-04-25 19:10 39.29062 38.71151 30089 ft 474 kts 304°
2026-04-25 19:11 39.33202 38.64516 30091 ft 474 kts 304°
2026-04-25 19:11 39.37309 38.57918 30099 ft 473 kts 305°
2026-04-25 19:12 39.41426 38.51294 30075 ft 471 kts 305°
2026-04-25 19:12 39.44832 38.45804 30093 ft 470 kts 305°
2026-04-25 19:13 39.48914 38.39210 30084 ft 470 kts 305°
2026-04-25 19:13 39.52997 38.32601 30073 ft 470 kts 305°
2026-04-25 19:14 39.57081 38.25979 30078 ft 470 kts 305°
2026-04-25 19:14 39.61161 38.19341 30068 ft 471 kts 304°
2026-04-25 19:15 39.65256 38.12669 30069 ft 472 kts 304°
2026-04-25 19:15 39.69340 38.06004 30075 ft 472 kts 304°
2026-04-25 19:16 39.73426 37.99323 30076 ft 472 kts 304°
2026-04-25 19:16 39.77498 37.92648 30084 ft 471 kts 304°
2026-04-25 19:17 39.81540 37.86008 30084 ft 470 kts 304°
2026-04-25 19:17 39.85590 37.79341 30076 ft 469 kts 304°
2026-04-25 19:18 39.89629 37.72678 30085 ft 468 kts 304°
2026-04-25 19:18 39.93666 37.66003 30081 ft 467 kts 304°
2026-04-25 19:19 39.97676 37.59360 30071 ft 466 kts 304°
2026-04-25 19:19 40.01677 37.52714 30077 ft 466 kts 304°
2026-04-25 19:20 40.05658 37.46091 30074 ft 466 kts 304°
2026-04-25 19:20 40.09657 37.39422 30052 ft 466 kts 304°
2026-04-25 19:21 40.13660 37.32736 30083 ft 467 kts 304°
2026-04-25 19:21 40.19659 37.22684 30081 ft 468 kts 304°
2026-04-25 19:22 40.23658 37.15965 30074 ft 468 kts 304°
2026-04-25 19:23 40.29643 37.05884 30075 ft 467 kts 303°
2026-04-25 19:23 40.35621 36.95784 30073 ft 467 kts 303°
2026-04-25 19:24 40.39571 36.89089 30073 ft 467 kts 303°
2026-04-25 19:25 40.47517 36.75582 30080 ft 468 kts 303°
2026-04-25 19:25 40.51490 36.68804 30085 ft 468 kts 304°
2026-04-25 19:26 40.55468 36.62006 30082 ft 469 kts 303°
2026-04-25 19:26 40.59421 36.55235 30070 ft 469 kts 303°
2026-04-25 19:27 40.62747 36.49524 30082 ft 469 kts 304°
2026-04-25 19:27 40.67362 36.41586 30081 ft 469 kts 304°
2026-04-25 19:28 40.71323 36.34757 30074 ft 470 kts 304°
2026-04-25 19:28 40.75297 36.27889 30082 ft 470 kts 304°
2026-04-25 19:29 40.79263 36.21021 30068 ft 470 kts 304°
2026-04-25 19:29 40.83219 36.14153 30069 ft 470 kts 304°
2026-04-25 19:30 40.87155 36.07304 30060 ft 469 kts 304°
2026-04-25 19:30 40.91107 36.00411 30062 ft 471 kts 304°
2026-04-25 19:31 40.95076 35.93476 30062 ft 473 kts 304°
2026-04-25 19:31 40.98756 35.86267 30062 ft 473 kts 296°
2026-04-25 19:32 41.01379 35.78352 30060 ft 473 kts 288°
2026-04-25 19:32 41.03242 35.71465 30060 ft 475 kts 288°
2026-04-25 19:33 41.05849 35.61878 30052 ft 477 kts 288°
2026-04-25 19:33 41.08119 35.53610 30049 ft 477 kts 288°
2026-04-25 19:34 41.10393 35.45327 30039 ft 477 kts 288°
2026-04-25 19:34 41.12658 35.37053 30047 ft 477 kts 288°
2026-04-25 19:35 41.14901 35.28826 30044 ft 476 kts 288°
2026-04-25 19:35 41.17147 35.20557 30047 ft 476 kts 288°
2026-04-25 19:36 41.19388 35.12282 30051 ft 476 kts 288°
2026-04-25 19:36 41.21621 35.04007 30052 ft 476 kts 288°
2026-04-25 19:37 41.23849 34.95721 30054 ft 476 kts 288°
2026-04-25 19:37 41.26072 34.87432 30056 ft 477 kts 288°
2026-04-25 19:38 41.28292 34.79125 30063 ft 477 kts 288°
2026-04-25 19:38 41.30512 34.70791 30063 ft 478 kts 288°
2026-04-25 19:39 41.32727 34.62445 30060 ft 479 kts 288°
2026-04-25 19:39 41.34941 34.54078 30069 ft 479 kts 288°
2026-04-25 19:40 41.37137 34.45752 30075 ft 479 kts 288°
2026-04-25 19:40 41.39339 34.37372 30070 ft 479 kts 288°
2026-04-25 19:41 41.41525 34.28990 30078 ft 478 kts 288°
2026-04-25 19:41 41.42967 34.23377 30071 ft 478 kts 288°
2026-04-25 19:42 41.45815 34.12277 30073 ft 476 kts 288°
2026-04-25 19:42 41.47968 34.03919 30092 ft 476 kts 288°
2026-04-25 19:43 41.50113 33.95581 30086 ft 475 kts 288°
2026-04-25 19:43 41.52248 33.87246 30084 ft 474 kts 288°
2026-04-25 19:44 41.54373 33.78913 30090 ft 474 kts 288°
2026-04-25 19:44 41.56490 33.70587 30088 ft 473 kts 288°
2026-04-25 19:45 41.58602 33.62251 30082 ft 473 kts 288°
2026-04-25 19:45 41.60689 33.53916 30082 ft 473 kts 287°
2026-04-25 19:46 41.62764 33.45578 30081 ft 473 kts 288°
2026-04-25 19:46 41.64856 33.37305 30075 ft 473 kts 288°
2026-04-25 19:47 41.66958 33.28959 30079 ft 474 kts 288°
2026-04-25 19:47 41.69051 33.20592 30070 ft 474 kts 288°
2026-04-25 19:48 41.71135 33.12225 30067 ft 474 kts 288°
2026-04-25 19:48 41.73222 33.03826 30066 ft 476 kts 288°
2026-04-25 19:49 41.74606 32.98193 30061 ft 476 kts 288°
2026-04-25 19:49 41.77331 32.86946 30048 ft 477 kts 287°
2026-04-25 19:50 41.80386 32.74312 30041 ft 477 kts 288°
2026-04-25 19:51 41.82460 32.65868 30051 ft 477 kts 288°
2026-04-25 19:51 41.84536 32.57432 30276 ft 475 kts 288°
2026-04-25 19:51 41.85567 32.53216 30419 ft 476 kts 288°
2026-04-25 19:52 41.86598 32.48989 30559 ft 477 kts 288°
2026-04-25 19:52 41.87627 32.44752 30705 ft 478 kts 288°
2026-04-25 19:52 41.88628 32.40497 30850 ft 479 kts 287°
2026-04-25 19:52 41.89619 32.36224 31006 ft 479 kts 287°
2026-04-25 19:53 41.90626 32.31953 31139 ft 480 kts 288°
2026-04-25 19:53 41.91651 32.27680 31298 ft 480 kts 288°
2026-04-25 19:53 41.92672 32.23420 31451 ft 480 kts 288°
2026-04-25 19:53 41.93691 32.19145 31598 ft 480 kts 288°
2026-04-25 19:54 41.94706 32.14872 31742 ft 480 kts 288°
2026-04-25 19:54 41.95706 32.10649 31884 ft 480 kts 288°
2026-04-25 19:54 41.96717 32.06375 31958 ft 479 kts 288°
2026-04-25 19:55 41.98720 31.97878 32031 ft 472 kts 288°
2026-04-25 19:55 42.00699 31.89464 32032 ft 470 kts 288°
2026-04-25 19:56 42.02663 31.81074 32038 ft 470 kts 288°
2026-04-25 19:56 42.04619 31.72684 32043 ft 470 kts 288°
2026-04-25 19:57 42.06558 31.64335 32044 ft 471 kts 288°
2026-04-25 19:57 42.08509 31.55904 32041 ft 472 kts 288°
2026-04-25 19:58 42.10456 31.47460 32044 ft 472 kts 288°
2026-04-25 19:58 42.12390 31.39047 32047 ft 473 kts 288°
2026-04-25 19:59 42.14335 31.30575 32048 ft 473 kts 288°
2026-04-25 19:59 42.16276 31.22098 32044 ft 474 kts 288°
2026-04-25 20:00 42.18214 31.13603 32048 ft 474 kts 288°
2026-04-25 20:00 42.20143 31.05109 32049 ft 473 kts 288°
2026-04-25 20:01 42.23025 30.92359 32041 ft 473 kts 288°
2026-04-25 20:01 42.24935 30.83870 32050 ft 473 kts 288°
2026-04-25 20:02 42.26518 30.76807 32048 ft 473 kts 288°
2026-04-25 20:02 42.28415 30.68309 32049 ft 473 kts 288°
2026-04-25 20:03 42.30305 30.59817 32049 ft 472 kts 288°
2026-04-25 20:03 42.32191 30.51304 32049 ft 472 kts 288°
2026-04-25 20:04 42.34059 30.42843 32046 ft 472 kts 288°
2026-04-25 20:04 42.35929 30.34334 32046 ft 472 kts 288°
2026-04-25 20:05 42.37793 30.25821 32045 ft 472 kts 288°
2026-04-25 20:05 42.39654 30.17290 32042 ft 472 kts 288°
2026-04-25 20:06 42.41505 30.08769 32044 ft 472 kts 287°
2026-04-25 20:06 42.43352 30.00235 32044 ft 472 kts 287°
2026-04-25 20:07 42.45247 29.91723 32036 ft 472 kts 291°
2026-04-25 20:07 42.48121 29.83765 32044 ft 470 kts 302°
2026-04-25 20:08 42.51911 29.76647 32052 ft 469 kts 308°
2026-04-25 20:08 42.55908 29.69646 32029 ft 469 kts 308°
2026-04-25 20:09 42.59888 29.62610 32034 ft 469 kts 308°
2026-04-25 20:09 42.63835 29.55560 32033 ft 469 kts 308°
2026-04-25 20:10 42.67774 29.48490 32032 ft 469 kts 308°
2026-04-25 20:10 42.71705 29.41418 32027 ft 469 kts 308°
2026-04-25 20:11 42.75634 29.34334 32031 ft 469 kts 308°
2026-04-25 20:11 42.79557 29.27246 32029 ft 468 kts 308°
2026-04-25 20:12 42.83474 29.20152 32030 ft 468 kts 308°
2026-04-25 20:12 42.86725 29.14252 32027 ft 468 kts 308°
2026-04-25 20:13 42.91296 29.05934 32027 ft 468 kts 307°
2026-04-25 20:13 42.95177 28.98855 32030 ft 468 kts 307°
2026-04-25 20:14 42.99077 28.91721 32034 ft 468 kts 308°
2026-04-25 20:14 43.02973 28.84581 32025 ft 468 kts 308°
2026-04-25 20:15 43.06856 28.77443 32017 ft 467 kts 307°
2026-04-25 20:15 43.10717 28.70265 32029 ft 467 kts 307°
2026-04-25 20:16 43.14528 28.63142 32023 ft 466 kts 307°
2026-04-25 20:16 43.18354 28.55977 32023 ft 466 kts 307°
2026-04-25 20:17 43.22182 28.48797 32015 ft 465 kts 307°
2026-04-25 20:17 43.25997 28.41627 32019 ft 465 kts 308°
2026-04-25 20:18 43.29779 28.34501 32024 ft 464 kts 307°
2026-04-25 20:18 43.33587 28.27310 32030 ft 465 kts 307°
2026-04-25 20:19 43.37381 28.20127 31997 ft 464 kts 307°
2026-04-25 20:19 43.41168 28.12937 31993 ft 463 kts 307°
2026-04-25 20:20 43.44945 28.05750 31987 ft 463 kts 307°
2026-04-25 20:20 43.48711 27.98568 31987 ft 463 kts 307°
2026-04-25 20:21 43.52472 27.91377 31990 ft 462 kts 307°
2026-04-25 20:21 43.56223 27.84188 31987 ft 462 kts 307°
2026-04-25 20:22 43.59336 27.78207 31981 ft 461 kts 307°
2026-04-25 20:22 43.63681 27.69841 31985 ft 460 kts 307°
2026-04-25 20:23 43.67404 27.62654 31994 ft 459 kts 307°
2026-04-25 20:23 43.71107 27.55486 31974 ft 457 kts 307°
2026-04-25 20:24 43.74794 27.48332 31983 ft 456 kts 307°
2026-04-25 20:24 43.78461 27.41200 31981 ft 454 kts 307°
2026-04-25 20:25 43.82119 27.34067 31975 ft 453 kts 306°
2026-04-25 20:25 43.85733 27.27004 31971 ft 452 kts 306°
2026-04-25 20:26 43.89372 27.19876 31982 ft 453 kts 306°
2026-04-25 20:26 43.93006 27.12737 31973 ft 454 kts 306°
2026-04-25 20:27 43.96646 27.05570 31984 ft 454 kts 306°
2026-04-25 20:27 44.00293 26.98372 31978 ft 455 kts 306°
2026-04-25 20:28 44.03933 26.91168 31971 ft 456 kts 306°
2026-04-25 20:28 44.07577 26.83943 31970 ft 456 kts 306°
2026-04-25 20:29 44.10968 26.76488 31969 ft 456 kts 302°
2026-04-25 20:29 44.14226 26.68919 31967 ft 455 kts 302°
2026-04-25 20:30 44.17478 26.61346 31975 ft 455 kts 302°
2026-04-25 20:30 44.20710 26.53838 31978 ft 454 kts 302°
2026-04-25 20:31 44.23962 26.46282 31963 ft 453 kts 302°
2026-04-25 20:31 44.27201 26.38740 31972 ft 452 kts 302°
2026-04-25 20:32 44.30428 26.31208 31961 ft 452 kts 302°
2026-04-25 20:32 44.33647 26.23673 31973 ft 451 kts 301°
2026-04-25 20:33 44.36852 26.16152 31969 ft 451 kts 301°
2026-04-25 20:33 44.39514 26.09889 31960 ft 450 kts 301°
2026-04-25 20:34 44.43228 26.01128 31963 ft 450 kts 301°
2026-04-25 20:34 44.46414 25.93590 31975 ft 450 kts 301°
2026-04-25 20:35 44.49601 25.86030 31961 ft 450 kts 301°
2026-04-25 20:35 44.52781 25.78468 31960 ft 450 kts 301°
2026-04-25 20:36 44.55952 25.70907 31969 ft 450 kts 301°
2026-04-25 20:36 44.59106 25.63365 31972 ft 449 kts 301°
2026-04-25 20:37 44.62263 25.55797 31971 ft 449 kts 301°
2026-04-25 20:37 44.65417 25.48215 31963 ft 449 kts 301°
2026-04-25 20:38 44.68563 25.40633 31988 ft 448 kts 300°
2026-04-25 20:38 44.71695 25.33062 31969 ft 447 kts 300°
2026-04-25 20:39 44.74815 25.25503 31971 ft 446 kts 300°
2026-04-25 20:39 44.76876 25.20497 31971 ft 446 kts 300°
2026-04-25 20:40 44.81002 25.10450 31977 ft 445 kts 300°
2026-04-25 20:40 44.84096 25.02893 31977 ft 445 kts 300°
2026-04-25 20:41 44.87184 24.95330 31994 ft 445 kts 300°
2026-04-25 20:41 44.90272 24.87746 31976 ft 445 kts 300°
2026-04-25 20:42 44.93353 24.80156 31983 ft 445 kts 300°
2026-04-25 20:42 44.96411 24.72608 31981 ft 445 kts 299°
2026-04-25 20:43 44.99478 24.65015 31988 ft 444 kts 299°
2026-04-25 20:43 45.02536 24.57422 31990 ft 444 kts 299°
2026-04-25 20:44 45.05586 24.49830 31987 ft 444 kts 299°
2026-04-25 20:44 45.08630 24.42231 31993 ft 444 kts 299°
2026-04-25 20:45 45.11671 24.34620 31994 ft 444 kts 299°
2026-04-25 20:45 45.14706 24.27002 31996 ft 444 kts 299°
2026-04-25 20:46 45.17739 24.19370 32025 ft 444 kts 299°
2026-04-25 20:46 45.20762 24.11741 32017 ft 443 kts 298°
2026-04-25 20:47 45.23753 24.04171 32022 ft 441 kts 298°
2026-04-25 20:47 45.26746 23.96568 32015 ft 440 kts 298°
2026-04-25 20:48 45.29733 23.88973 32018 ft 440 kts 298°
2026-04-25 20:48 45.32702 23.81411 32023 ft 441 kts 298°
2026-04-25 20:49 45.35689 23.73768 32020 ft 442 kts 298°
2026-04-25 20:49 45.38670 23.66115 32026 ft 442 kts 298°
2026-04-25 20:50 45.41647 23.58455 32030 ft 442 kts 298°
2026-04-25 20:50 45.44120 23.52076 32024 ft 442 kts 298°
2026-04-25 20:51 45.47575 23.43143 32014 ft 442 kts 298°
2026-04-25 20:51 45.50054 23.36714 32026 ft 441 kts 298°
2026-04-25 20:52 45.52505 23.30343 32026 ft 441 kts 298°
2026-04-25 20:52 45.55947 23.21368 32018 ft 441 kts 298°
2026-04-25 20:53 45.58867 23.13734 32025 ft 441 kts 298°
2026-04-25 20:53 45.61801 23.06044 32028 ft 440 kts 298°
2026-04-25 20:54 45.64726 22.98351 32012 ft 441 kts 298°
2026-04-25 20:54 45.67654 22.90629 32023 ft 441 kts 297°
2026-04-25 20:55 45.70574 22.82908 32010 ft 440 kts 297°
2026-04-25 20:55 45.73461 22.75254 32020 ft 439 kts 297°
2026-04-25 20:56 45.76354 22.67560 32007 ft 438 kts 297°
2026-04-25 20:56 45.79237 22.59871 32007 ft 438 kts 297°
2026-04-25 20:57 45.82115 22.52178 32013 ft 437 kts 297°
2026-04-25 20:57 45.84986 22.44477 32008 ft 438 kts 297°
2026-04-25 20:58 45.87854 22.36764 32010 ft 438 kts 297°
2026-04-25 20:58 45.90699 22.29091 32000 ft 439 kts 297°
2026-04-25 20:59 45.93563 22.21343 32001 ft 439 kts 297°
2026-04-25 20:59 45.96424 22.13585 32000 ft 439 kts 297°
2026-04-25 21:00 45.98799 22.07126 32000 ft 439 kts 297°
2026-04-25 21:01 46.03554 21.94147 31996 ft 439 kts 296°
2026-04-25 21:01 46.06396 21.86362 31986 ft 439 kts 296°
2026-04-25 21:02 46.09231 21.78571 31981 ft 439 kts 296°
2026-04-25 21:02 46.12045 21.70815 31984 ft 439 kts 296°
2026-04-25 21:03 46.14869 21.63009 31985 ft 439 kts 296°
2026-04-25 21:03 46.17682 21.55214 31972 ft 438 kts 296°
2026-04-25 21:04 46.20482 21.47430 31967 ft 436 kts 296°
2026-04-25 21:04 46.23271 21.39653 31967 ft 435 kts 296°
2026-04-25 21:05 46.26045 21.31896 31967 ft 435 kts 296°
2026-04-25 21:05 46.28815 21.24127 31968 ft 435 kts 296°
2026-04-25 21:06 46.31568 21.16386 31968 ft 435 kts 296°
2026-04-25 21:06 46.34329 21.08597 31968 ft 435 kts 296°
2026-04-25 21:07 46.37090 21.00787 31968 ft 436 kts 296°
2026-04-25 21:07 46.39845 20.92970 31962 ft 436 kts 296°
2026-04-25 21:08 46.42600 20.85131 31960 ft 436 kts 296°
2026-04-25 21:08 46.45347 20.77292 31958 ft 436 kts 296°
2026-04-25 21:09 46.49462 20.65502 31956 ft 436 kts 295°
2026-04-25 21:09 46.52195 20.57646 31952 ft 436 kts 295°
2026-04-25 21:10 46.54923 20.49779 31950 ft 436 kts 295°
2026-04-25 21:10 46.57645 20.41905 31951 ft 436 kts 295°
2026-04-25 21:11 46.60344 20.34073 31972 ft 436 kts 295°
2026-04-25 21:11 46.63069 20.26143 31948 ft 435 kts 295°